EW5186 Weather Reports


Display with metric or nautical units.
time (UTC)temp
F
wind
direction
speed
MPH
gust
MPH
rain 1hr
in
rain 24hr
in
rain mn
in
humidity
%
barometer
mb
20260507163035 60 310 2.0 8.0 0.00 0.38 0.24 46 1010.6
20260507161535 59 143 3.0 10.0 0.00 0.38 0.24 44 1010.9
20260507160033 59 308 3.0 11.0 0.00 0.38 0.24 46 1011.1
20260507154531 59 6 2.0 8.0 0.00 0.38 0.24 42 1011.1
20260507153028 58 347 1.0 10.0 0.00 0.38 0.24 47 1011.3
20260507151509 57 131 1.0 12.0 0.00 0.38 0.24 47 1011.4
20260507150019 57 44 2.0 10.0 0.00 0.38 0.24 45 1011.4
20260507144549 57 278 3.0 9.0 0.00 0.38 0.24 47 1011.4
20260507143048 56 294 3.0 11.0 0.00 0.38 0.24 51 1011.4
20260507141525 55 304 1.0 7.0 0.00 0.38 0.24 55 1011.4
20260507140027 54 233 1.0 6.0 0.00 0.38 0.24 58 1011.6
20260507134509 55 311 3.0 11.0 0.00 0.38 0.24 57 1011.2
20260507133002 54 287 2.0 9.0 0.00 0.38 0.24 63 1011.2
20260507131550 53 114 1.0 8.0 0.00 0.38 0.24 70 1011.3
20260507130055 52 63 2.0 10.0 0.00 0.38 0.24 69 1011.3
20260507124530 51 268 3.0 9.0 0.00 0.38 0.24 74 1011.5
20260507123022 49 312 3.0 10.0 0.00 0.38 0.24 77 1011.7
20260507121507 49 49 0.0 5.0 0.00 0.38 0.24 85 1011.6
20260507120007 48 228 0.0 3.0 0.00 0.38 0.24 90 1011.1
20260507114506 47 359 0.0 3.0 0.00 0.38 0.24 91 1011.1
20260507113010 47 279 1.0 5.0 0.00 0.38 0.24 92 1011.3
20260507111603 47 345 0.0 4.0 0.00 0.38 0.24 93 1010.9
20260507110100 47 258 0.0 4.0 0.00 0.38 0.24 93 1010.8
20260507104557 47 124 0.0 1.0 0.01 0.38 0.24 94 1010.4
20260507103056 47 262 0.0 2.0 0.01 0.38 0.24 94 1010.6
20260507101543 47 156 0.0 4.0 0.02 0.38 0.24 94 1010.4
20260507100037 47 277 0.0 1.0 0.04 0.38 0.24 94 1010.2
20260507094517 47 195 0.0 3.0 0.05 0.37 0.23 94 1010.3
20260507093017 47 190 0.0 1.0 0.06 0.37 0.23 94 1009.8
20260507091558 47 285 0.0 2.0 0.06 0.36 0.22 94 1009.8
20260507084555 48 129 0.0 2.0 0.04 0.32 0.18 93 1009.9
20260507083044 48 163 0.0 4.0 0.06 0.31 0.17 93 1009.7
20260507081543 49 307 0.0 4.0 0.07 0.30 0.16 94 1010.1
20260507080043 49 307 0.0 4.0 0.07 0.28 0.15 94 1009.6
20260507074538 49 240 0.0 3.0 0.08 0.28 0.14 94 1010.0
20260507073035 49 271 0.0 1.0 0.09 0.25 0.11 93 1010.1
20260507071534 50 307 0.0 3.0 0.09 0.23 0.09 93 1010.0
20260507070033 50 229 0.0 0.0 0.08 0.22 0.08 92 1010.0
20260507064514 50 263 0.0 3.0 0.06 0.20 0.06 92 1009.5
20260507063012 51 297 0.0 3.0 0.01 0.15 0.01 91 1009.7
20260507061552 51 11 0.0 4.0 0.00 0.14 0.00 89 1008.8
20260507060049 51 284 0.0 3.0 0.00 0.14 0.00 89 1009.0
20260507054537 52 299 0.0 5.0 0.00 0.14 0.00 90 1009.3
20260507053029 52 271 0.0 4.0 0.00 0.14 0.00 89 1009.3
20260507051511 52 30 0.0 5.0 0.00 0.14 0.00 90 1009.4
20260507050008 52 143 0.0 4.0 0.00 0.14 0.00 91 1009.3
20260507044550 53 322 0.0 1.0 0.00 0.14 0.00 93 1009.8
20260507043047 53 124 0.0 1.0 0.00 0.14 0.00 93 1009.7
20260507041530 54 124 0.0 1.0 0.00 0.14 0.00 93 1009.4
20260507040026 54 58 0.0 1.0 0.00 0.14 0.14 94 1009.4
20260507034513 55 255 0.0 1.0 0.01 0.14 0.14 94 1009.4
20260507033013 56 288 0.0 1.0 0.01 0.14 0.14 95 1009.4
20260507031512 56 143 0.0 1.0 0.01 0.14 0.14 95 1009.6
20260507030011 56 143 0.0 0.0 0.01 0.14 0.14 95 1009.3
20260507024513 56 143 0.0 0.0 0.00 0.13 0.13 95 1009.2
20260507023010 56 143 0.0 1.0 0.00 0.13 0.13 95 1009.1
20260507021510 56 107 0.0 0.0 0.00 0.13 0.13 95 1009.1
20260507020010 56 86 0.0 2.0 0.00 0.13 0.13 95 1009.1
20260507014506 56 121 0.0 0.0 0.00 0.13 0.13 95 1009.2
20260507013014 56 158 0.0 1.0 0.00 0.13 0.13 94 1009.3
20260507011554 56 169 0.0 3.0 0.00 0.13 0.13 94 1009.2
20260507004602 56 158 0.0 3.0 0.00 0.13 0.13 94 1008.8
20260507003054 56 91 0.0 2.0 0.00 0.13 0.13 94 1008.9
20260507001555 56 195 0.0 2.0 0.00 0.13 0.13 94 1008.8
20260507000053 56 156 0.0 4.0 0.00 0.13 0.13 94 1009.1
20260506234553 56 121 0.0 4.0 0.00 0.13 0.13 94 1009.0
20260506233107 56 175 0.0 1.0 0.00 0.13 0.13 94 1008.9
20260506231533 56 78 0.0 4.0 0.00 0.13 0.13 94 1008.8
20260506230038 56 244 0.0 1.0 0.00 0.13 0.13 94 1008.6
20260506224514 56 146 0.0 5.0 0.00 0.13 0.13 94 1008.5
20260506223014 56 212 0.0 1.0 0.00 0.13 0.13 94 1008.4
20260506221608 56 155 0.0 3.0 0.00 0.13 0.13 94 1008.3
20260506220056 56 129 0.0 3.0 0.00 0.13 0.13 94 1008.3
20260506214549 56 172 0.0 3.0 0.00 0.13 0.13 93 1008.2
20260506213058 56 332 0.0 4.0 0.01 0.13 0.13 93 1008.2
20260506211546 57 238 0.0 4.0 0.02 0.13 0.13 93 1008.1
20260506210042 57 114 0.0 5.0 0.03 0.13 0.13 93 1008.2
20260506204540 57 141 0.0 7.0 0.03 0.13 0.13 93 1008.4
20260506203037 57 174 0.0 3.0 0.02 0.12 0.12 93 1008.7
20260506201541 58 178 0.0 2.0 0.01 0.11 0.11 92 1008.7
20260506200135 58 162 0.0 8.0 0.00 0.10 0.10 92 1008.7
20260506194516 58 121 1.0 6.0 0.00 0.10 0.10 92 1008.8
20260506193015 59 121 0.0 7.0 0.01 0.10 0.10 92 1009.0
20260506191556 58 25 1.0 7.0 0.03 0.10 0.10 92 1009.3
20260506190056 58 245 1.0 7.0 0.03 0.10 0.10 92 1009.5
20260506184546 58 268 0.0 5.0 0.04 0.10 0.10 92 1009.8
20260506183050 58 150 1.0 5.0 0.05 0.09 0.09 92 1009.9
20260506181519 58 181 1.0 6.0 0.06 0.07 0.07 91 1010.0
20260506180118 58 206 0.0 8.0 0.07 0.07 0.07 90 1009.8
20260506174614 58 150 1.0 6.0 0.06 0.06 0.06 90 1010.0
20260506173101 59 152 1.0 4.0 0.04 0.04 0.04 89 1010.4
20260506171553 59 141 0.0 5.0 0.01 0.01 0.01 87 1010.6
20260506170041 60 254 0.0 4.0 0.00 0.00 0.00 84 1010.9
20260506164540 61 158 0.0 5.0 0.00 0.00 0.00 82 1011.0